Overview Statistics Trail Chart Weather Telemetry Raw packets
 

This is the latest recevied weather packets stored in our database for station/object K5FEP. If no packets are shown the sender has not sent any weather packets the latest 10 day(s).

<< 12 13 14 15 16 17 18 >>
Time Temp. Humidity Pressure Rain* Wind** Luminosity Snow
1788554355 39.44° C 32% 1010.8 hPa 0 mm - 469 W/m² -
1788554051 39.44° C 32% 1010.7 hPa 0 mm - 516 W/m² -
1788553746 38.89° C 31% 1010.9 hPa 0 mm - 531 W/m² -
1788553443 39.44° C 31% 1010.9 hPa 0 mm - 554 W/m² -
1788553138 39.44° C 31% 1011 hPa 0 mm - 570 W/m² -
1788552833 39.44° C 32% 1011.1 hPa 0 mm - 598 W/m² -
1788552528 39.44° C 31% 1011.2 hPa 0 mm - 634 W/m² -
1788552227 39.44° C 30% 1011.3 hPa 0 mm - 640 W/m² -
1788551922 40° C 30% 1011.5 hPa 0 mm - 437 W/m² -
1788551620 39.44° C 31% 1011.6 hPa 0 mm - 684 W/m² -
1788551325 40° C 30% 1011.8 hPa 0 mm - 258 W/m² -
1788551014 38.89° C 31% 1011.8 hPa 0 mm - 712 W/m² -
1788550710 38.89° C 32% 1011.9 hPa 0 mm - 728 W/m² -
1788550405 39.44° C 32% 1012.1 hPa 0 mm - 741 W/m² -
1788550100 39.44° C 32% 1011.9 hPa 0 mm - 745 W/m² -
1788549795 39.44° C 31% 1011.8 hPa 0 mm - 216 W/m² -
1788549493 40° C 31% 1011.7 hPa 0 mm - 771 W/m² -
1788549189 40° C 30% 1012 hPa 0 mm - 804 W/m² -
1788548885 38.89° C 33% 1012 hPa 0 mm - 800 W/m² -
1788548580 38.33° C 33% 1012.2 hPa 0 mm - 823 W/m² -
1788548276 38.89° C 33% 1012.4 hPa 0 mm - 183 W/m² -
1788547971 38.89° C 34% 1012.3 hPa 0 mm - 846 W/m² -
1788547670 38.33° C 33% 1012.6 hPa 0 mm - 871 W/m² -
1788547366 37.78° C 34% 1012.7 hPa 0 mm - 619 W/m² -
1788547062 38.33° C 34% 1012.8 hPa 0 mm - 385 W/m² -

* Rain latest hour (hover to see other rain measurements)
** Current wind speed in m/s (hover to see current wind gust speed)